• In Uzbekistan
  • List of Countries
  • For 7 days
  • Water Temperature
  • Satellite Maps
  • Weather Map
  • Weather Widgets
  • user-avatar
    Login

    Hourly Weather Lankaran

    Today, 22 August, Tuesday

    Time Temperature Precipitation Wind Pressure Humidity
    00:00 +20°C° 0 mm 1 mps 633 mmHg 71%
    01:00 +20°C° 0 mm 1 mps 632 mmHg 71%
    02:00 +19°C° 0 mm 1 mps 632 mmHg 71%
    03:00 +17°C° 0 mm 0 mps 632 mmHg 71%
    04:00 +20°C° 0 mm 1 mps 632 mmHg 68%
    05:00 +20°C° 0 mm 1 mps 633 mmHg 64%
    06:00 +20°C° 0 mm 1 mps 633 mmHg 61%
    07:00 +23°C° 0 mm 1 mps 634 mmHg 54%
    08:00 +25°C° 0 mm 2 mps 634 mmHg 46%
    09:00 +27°C° 0 mm 2 mps 635 mmHg 39%
    10:00 +28°C° 0 mm 2 mps 635 mmHg 36%
    11:00 +29°C° 0 mm 3 mps 635 mmHg 33%
    12:00 +30°C° 0 mm 3 mps 635 mmHg 30%
    13:00 +30°C° 0 mm 3 mps 635 mmHg 29%
    14:00 +30°C° 0 mm 3 mps 634 mmHg 29%
    15:00 +31°C° 0 mm 3 mps 634 mmHg 29%
    16:00 +29°C° 0 mm 3 mps 634 mmHg 34%
    17:00 +27°C° 0 mm 3 mps 633 mmHg 38%
    18:00 +26°C° 0 mm 2 mps 633 mmHg 43%
    19:00 +24°C° 0 mm 2 mps 633 mmHg 48%
    20:00 +23°C° 0 mm 1 mps 633 mmHg 53%
    21:00 +21°C° 0 mm 1 mps 632 mmHg 59%
    22:00 +21°C° 0 mm 1 mps 632 mmHg 58%
    23:00 +21°C° 0 mm 1 mps 632 mmHg 57%

    Tomorrow, 23 August, Wednesday

    Time Temperature Precipitation Wind Pressure Humidity
    00:00 +20°C° 0 mm 1 mps 632 mmHg 57%
    01:00 +20°C° 0 mm 1 mps 632 mmHg 57%
    02:00 +19°C° 0 mm 1 mps 632 mmHg 57%
    03:00 +19°C° 0 mm 1 mps 632 mmHg 57%
    04:00 +20°C° 0 mm 1 mps 632 mmHg 56%
    05:00 +20°C° 0 mm 1 mps 633 mmHg 55%
    06:00 +20°C° 0 mm 1 mps 633 mmHg 53%
    07:00 +23°C° 0 mm 2 mps 634 mmHg 46%
    08:00 +25°C° 0 mm 2 mps 635 mmHg 39%
    09:00 +28°C° 0 mm 3 mps 636 mmHg 32%
    10:00 +29°C° 0 mm 3 mps 636 mmHg 29%
    11:00 +30°C° 0 mm 3 mps 636 mmHg 26%
    12:00 +32°C° 0 mm 4 mps 636 mmHg 23%
    13:00 +32°C° 0 mm 4 mps 635 mmHg 23%
    14:00 +32°C° 0 mm 4 mps 635 mmHg 24%
    15:00 +32°C° 0 mm 4 mps 635 mmHg 25%
    16:00 +29°C° 0 mm 3 mps 634 mmHg 31%
    17:00 +27°C° 0 mm 3 mps 634 mmHg 38%
    18:00 +25°C° 0 mm 2 mps 633 mmHg 45%
    19:00 +24°C° 0 mm 2 mps 633 mmHg 50%
    20:00 +21°C° 0 mm 2 mps 633 mmHg 56%
    21:00 +21°C° 0 mm 1 mps 633 mmHg 61%
    22:00 +20°C° 0 mm 1 mps 634 mmHg 59%
    23:00 +20°C° 0 mm 1 mps 634 mmHg 57%

    Day after tomorrow, 24 August, Thursday

    Time Temperature Precipitation Wind Pressure Humidity
    00:00 +20°C° 0 mm 1 mps 634 mmHg 54%
    01:00 +18°C° 0 mm 2 mps 634 mmHg 56%
    02:00 +18°C° 0 mm 2 mps 634 mmHg 57%
    03:00 +18°C° 0 mm 2 mps 634 mmHg 59%
    04:00 +18°C° 0 mm 2 mps 634 mmHg 59%
    05:00 +18°C° 0 mm 2 mps 635 mmHg 60%
    06:00 +18°C° 0 mm 2 mps 635 mmHg 61%
    07:00 +21°C° 0 mm 3 mps 636 mmHg 50%
    08:00 +24°C° 0 mm 3 mps 637 mmHg 40%
    09:00 +26°C° 0 mm 4 mps 638 mmHg 29%
    10:00 +27°C° 0 mm 4 mps 638 mmHg 26%
    11:00 +28°C° 0 mm 5 mps 638 mmHg 22%
    12:00 +30°C° 0 mm 5 mps 639 mmHg 18%
    13:00 +29°C° 0 mm 5 mps 638 mmHg 20%
    14:00 +29°C° 0 mm 5 mps 638 mmHg 21%
    15:00 +28°C° 0 mm 5 mps 637 mmHg 23%
    16:00 +27°C° 0 mm 4 mps 637 mmHg 30%
    17:00 +25°C° 0 mm 4 mps 637 mmHg 38%
    18:00 +22°C° 0 mm 3 mps 636 mmHg 45%
    19:00 +20°C° 0 mm 2 mps 636 mmHg 52%
    20:00 +19°C° 0 mm 2 mps 636 mmHg 58%
    21:00 +17°C° 0 mm 2 mps 636 mmHg 65%
    22:00 +17°C° 0 mm 2 mps 636 mmHg 61%
    23:00 +17°C° 0 mm 2 mps 636 mmHg 57%

    25 August, Friday

    Time Temperature Precipitation Wind Pressure Humidity
    00:00 +18°C° 0 mm 1 mps 636 mmHg 53%
    01:00 +16°C° 0 mm 1 mps 636 mmHg 51%
    02:00 +16°C° 0 mm 1 mps 636 mmHg 49%
    03:00 +16°C° 0 mm 1 mps 636 mmHg 47%
    04:00 +16°C° 0 mm 1 mps 636 mmHg 46%
    05:00 +16°C° 0 mm 2 mps 636 mmHg 45%
    06:00 +17°C° 0 mm 2 mps 637 mmHg 44%
    07:00 +19°C° 0 mm 2 mps 637 mmHg 38%
    08:00 +23°C° 0 mm 2 mps 638 mmHg 31%
    09:00 +25°C° 0 mm 3 mps 639 mmHg 25%
    10:00 +26°C° 0 mm 3 mps 639 mmHg 24%
    11:00 +27°C° 0 mm 3 mps 639 mmHg 23%
    12:00 +28°C° 0 mm 4 mps 639 mmHg 22%
    13:00 +28°C° 0 mm 4 mps 638 mmHg 23%
    14:00 +28°C° 0 mm 4 mps 638 mmHg 24%
    15:00 +28°C° 0 mm 4 mps 638 mmHg 25%
    16:00 +26°C° 0 mm 4 mps 637 mmHg 32%
    17:00 +25°C° 0 mm 3 mps 637 mmHg 38%
    18:00 +22°C° 0 mm 3 mps 636 mmHg 45%
    19:00 +20°C° 0 mm 2 mps 636 mmHg 51%
    20:00 +19°C° 0 mm 2 mps 636 mmHg 58%
    21:00 +17°C° 0 mm 2 mps 636 mmHg 64%
    22:00 +17°C° 0 mm 2 mps 636 mmHg 60%
    23:00 +16°C° 0 mm 2 mps 636 mmHg 56%

    26 August, Saturday

    Time Temperature Precipitation Wind Pressure Humidity
    00:00 +16°C° 0 mm 2 mps 636 mmHg 52%
    01:00 +16°C° 0 mm 2 mps 636 mmHg 53%
    02:00 +15°C° 0 mm 2 mps 635 mmHg 54%
    03:00 +15°C° 0 mm 2 mps 635 mmHg 54%
    04:00 +15°C° 0 mm 2 mps 636 mmHg 57%
    05:00 +15°C° 0 mm 2 mps 636 mmHg 59%
    06:00 +15°C° 0 mm 2 mps 636 mmHg 62%
    07:00 +18°C° 0 mm 2 mps 637 mmHg 52%
    08:00 +20°C° 0 mm 3 mps 637 mmHg 42%
    09:00 +24°C° 0 mm 3 mps 638 mmHg 32%
    10:00 +25°C° 0 mm 3 mps 638 mmHg 30%
    11:00 +26°C° 0 mm 4 mps 638 mmHg 28%
    12:00 +27°C° 0 mm 4 mps 638 mmHg 26%
    13:00 +27°C° 0 mm 4 mps 637 mmHg 27%
    14:00 +27°C° 0 mm 4 mps 637 mmHg 29%
    15:00 +26°C° 0 mm 4 mps 636 mmHg 31%
    16:00 +25°C° 0 mm 4 mps 636 mmHg 38%
    17:00 +22°C° 0 mm 3 mps 636 mmHg 45%
    18:00 +20°C° 0 mm 3 mps 635 mmHg 53%
    19:00 +18°C° 0 mm 2 mps 635 mmHg 59%
    20:00 +17°C° 0 mm 2 mps 635 mmHg 65%
    21:00 +16°C° 0 mm 2 mps 635 mmHg 71%
    22:00 +15°C° 0 mm 2 mps 635 mmHg 68%
    23:00 +15°C° 0 mm 2 mps 634 mmHg 65%

    27 August, Sunday

    Time Temperature Precipitation Wind Pressure Humidity
    00:00 +15°C° 0 mm 2 mps 634 mmHg 63%
    01:00 +15°C° 0 mm 2 mps 634 mmHg 62%
    02:00 +14°C° 0 mm 2 mps 634 mmHg 62%
    03:00 +14°C° 0 mm 2 mps 634 mmHg 61%
    04:00 +14°C° 0 mm 2 mps 634 mmHg 62%
    05:00 +15°C° 0 mm 2 mps 635 mmHg 63%
    06:00 +15°C° 0 mm 2 mps 635 mmHg 64%
    07:00 +17°C° 0 mm 2 mps 635 mmHg 56%
    08:00 +19°C° 0 mm 2 mps 636 mmHg 48%
    09:00 +22°C° 0 mm 3 mps 636 mmHg 40%
    10:00 +24°C° 0 mm 3 mps 636 mmHg 37%
    11:00 +25°C° 0 mm 3 mps 636 mmHg 35%
    12:00 +26°C° 0 mm 4 mps 636 mmHg 33%
    13:00 +26°C° 0 mm 4 mps 636 mmHg 34%
    14:00 +26°C° 0 mm 4 mps 635 mmHg 35%
    15:00 +26°C° 0 mm 4 mps 635 mmHg 36%
    16:00 +23°C° 0 mm 4 mps 635 mmHg 42%
    17:00 +21°C° 0 mm 3 mps 634 mmHg 49%
    18:00 +19°C° 0 mm 3 mps 634 mmHg 55%
    19:00 +18°C° 0 mm 3 mps 634 mmHg 61%
    20:00 +17°C° 0 mm 2 mps 634 mmHg 66%
    21:00 +15°C° 0 mm 2 mps 634 mmHg 72%
    22:00 +15°C° 0 mm 2 mps 634 mmHg 70%
    23:00 +15°C° 0 mm 2 mps 634 mmHg 68%
    Show more